When you browse on this site, cookies collect data to enhance your experience and personalize the content and advertising you see.
Visit our Privacy Policy to learn more. By continuing to use the site, you agree to this use of cookies and data.
  • In Hungary
  • List of Countries
  • For 7 days
  • Water Temperature
  • Weather Map
  • News
  • Weather Widgets
  • user-avatar
    Login

    Hourly Weather Zabrode

    Today, 20 August, Tuesday

    Time Temperature Precipitation Wind Pressure Humidity
    00:00 +20°C° 0.2 mm 2 mps 751 mmHg 82%
    01:00 +20°C° 0.2 mm 2 mps 752 mmHg 84%
    02:00 +19°C° 0.2 mm 2 mps 752 mmHg 86%
    03:00 +20°C° 0.1 mm 1 mps 752 mmHg 88%
    04:00 +19°C° 0.1 mm 1 mps 752 mmHg 89%
    05:00 +19°C° 0.1 mm 1 mps 752 mmHg 91%
    06:00 +21°C° 0 mm 1 mps 752 mmHg 86%
    07:00 +22°C° 0 mm 1 mps 753 mmHg 82%
    08:00 +23°C° 0 mm 2 mps 753 mmHg 78%
    09:00 +25°C° 0 mm 2 mps 753 mmHg 71%
    10:00 +27°C° 0 mm 2 mps 753 mmHg 65%
    11:00 +29°C° 0 mm 2 mps 753 mmHg 58%
    12:00 +30°C° 0 mm 2 mps 753 mmHg 56%
    13:00 +31°C° 0 mm 2 mps 753 mmHg 53%
    14:00 +31°C° 0 mm 2 mps 753 mmHg 51%
    15:00 +31°C° 0.5 mm 2 mps 753 mmHg 57%
    16:00 +30°C° 0.5 mm 2 mps 753 mmHg 62%
    17:00 +29°C° 0.5 mm 2 mps 753 mmHg 68%
    18:00 +27°C° 0.2 mm 1 mps 753 mmHg 74%
    19:00 +25°C° 0.2 mm 1 mps 753 mmHg 80%
    20:00 +24°C° 0.2 mm 1 mps 754 mmHg 87%
    21:00 +23°C° 0.3 mm 1 mps 754 mmHg 89%
    22:00 +20°C° 0.3 mm 0 mps 754 mmHg 91%
    23:00 +20°C° 0.3 mm 0 mps 754 mmHg 92%

    Tomorrow, 21 August, Wednesday

    Time Temperature Precipitation Wind Pressure Humidity
    00:00 +19°C° 0.3 mm 0 mps 754 mmHg 93%
    01:00 +19°C° 0.3 mm 0 mps 754 mmHg 93%
    02:00 +19°C° 0.3 mm 0 mps 754 mmHg 93%
    03:00 +19°C° 0.1 mm 0 mps 754 mmHg 94%
    04:00 +21°C° 0.1 mm 1 mps 753 mmHg 94%
    05:00 +20°C° 0.1 mm 1 mps 753 mmHg 94%
    06:00 +20°C° 0 mm 2 mps 753 mmHg 90%
    07:00 +21°C° 0 mm 2 mps 753 mmHg 85%
    08:00 +23°C° 0 mm 2 mps 753 mmHg 81%
    09:00 +25°C° 0 mm 2 mps 753 mmHg 72%
    10:00 +27°C° 0 mm 3 mps 753 mmHg 62%
    11:00 +29°C° 0 mm 3 mps 753 mmHg 53%
    12:00 +30°C° 0 mm 3 mps 753 mmHg 49%
    13:00 +31°C° 0 mm 3 mps 753 mmHg 45%
    14:00 +33°C° 0 mm 3 mps 752 mmHg 41%
    15:00 +32°C° 0 mm 2 mps 752 mmHg 45%
    16:00 +31°C° 0 mm 2 mps 752 mmHg 48%
    17:00 +31°C° 0 mm 2 mps 752 mmHg 52%
    18:00 +29°C° 0 mm 2 mps 752 mmHg 57%
    19:00 +27°C° 0 mm 2 mps 752 mmHg 62%
    20:00 +25°C° 0 mm 2 mps 752 mmHg 68%
    21:00 +22°C° 0 mm 3 mps 753 mmHg 76%
    22:00 +21°C° 0 mm 3 mps 753 mmHg 85%
    23:00 +20°C° 0 mm 3 mps 753 mmHg 93%

    Day after tomorrow, 22 August, Thursday

    Time Temperature Precipitation Wind Pressure Humidity
    00:00 +19°C° 0.1 mm 4 mps 754 mmHg 92%
    01:00 +19°C° 0.1 mm 4 mps 754 mmHg 91%
    02:00 +19°C° 0.1 mm 4 mps 754 mmHg 89%
    03:00 +18°C° 0 mm 4 mps 754 mmHg 89%
    04:00 +17°C° 0 mm 4 mps 754 mmHg 88%
    05:00 +17°C° 0 mm 4 mps 755 mmHg 88%
    06:00 +17°C° 0 mm 4 mps 755 mmHg 86%
    07:00 +16°C° 0 mm 5 mps 755 mmHg 84%
    08:00 +16°C° 0 mm 5 mps 756 mmHg 83%
    09:00 +17°C° 0 mm 4 mps 756 mmHg 81%
    10:00 +18°C° 0 mm 4 mps 756 mmHg 78%
    11:00 +18°C° 0 mm 4 mps 756 mmHg 76%
    12:00 +20°C° 0 mm 4 mps 756 mmHg 71%
    13:00 +21°C° 0 mm 4 mps 756 mmHg 67%
    14:00 +22°C° 0 mm 4 mps 756 mmHg 62%
    15:00 +22°C° 0 mm 4 mps 756 mmHg 62%
    16:00 +22°C° 0 mm 4 mps 756 mmHg 63%
    17:00 +22°C° 0 mm 3 mps 756 mmHg 64%
    18:00 +21°C° 0 mm 3 mps 756 mmHg 70%
    19:00 +19°C° 0 mm 3 mps 757 mmHg 76%
    20:00 +18°C° 0 mm 2 mps 757 mmHg 83%
    21:00 +17°C° 0 mm 2 mps 757 mmHg 85%
    22:00 +16°C° 0 mm 2 mps 757 mmHg 88%
    23:00 +15°C° 0 mm 2 mps 757 mmHg 90%

    23 August, Friday

    Time Temperature Precipitation Wind Pressure Humidity
    00:00 +15°C° 0 mm 2 mps 757 mmHg 92%
    01:00 +14°C° 0 mm 2 mps 758 mmHg 93%
    02:00 +14°C° 0 mm 2 mps 758 mmHg 94%
    03:00 +14°C° 0 mm 2 mps 758 mmHg 94%
    04:00 +13°C° 0 mm 2 mps 758 mmHg 94%
    05:00 +13°C° 0 mm 2 mps 758 mmHg 94%
    06:00 +14°C° 0 mm 2 mps 758 mmHg 87%
    07:00 +16°C° 0 mm 2 mps 758 mmHg 81%
    08:00 +17°C° 0 mm 2 mps 758 mmHg 74%
    09:00 +19°C° 0 mm 2 mps 758 mmHg 67%
    10:00 +21°C° 0 mm 2 mps 758 mmHg 60%
    11:00 +22°C° 0 mm 3 mps 758 mmHg 52%
    12:00 +24°C° 0 mm 3 mps 758 mmHg 50%
    13:00 +24°C° 0 mm 3 mps 758 mmHg 48%
    14:00 +25°C° 0 mm 3 mps 758 mmHg 46%
    15:00 +24°C° 0 mm 3 mps 758 mmHg 49%
    16:00 +24°C° 0 mm 3 mps 758 mmHg 52%
    17:00 +23°C° 0 mm 2 mps 758 mmHg 55%
    18:00 +20°C° 0 mm 2 mps 758 mmHg 62%
    19:00 +18°C° 0 mm 2 mps 758 mmHg 68%
    20:00 +16°C° 0 mm 2 mps 758 mmHg 75%
    21:00 +16°C° 0 mm 1 mps 758 mmHg 77%
    22:00 +15°C° 0 mm 1 mps 759 mmHg 80%
    23:00 +14°C° 0 mm 1 mps 759 mmHg 82%

    24 August, Saturday

    Time Temperature Precipitation Wind Pressure Humidity
    00:00 +14°C° 0 mm 1 mps 759 mmHg 84%
    01:00 +14°C° 0 mm 1 mps 759 mmHg 85%
    02:00 +13°C° 0 mm 1 mps 759 mmHg 87%
    03:00 +13°C° 0 mm 1 mps 759 mmHg 88%
    04:00 +13°C° 0 mm 1 mps 759 mmHg 90%
    05:00 +12°C° 0 mm 1 mps 759 mmHg 91%
    06:00 +14°C° 0 mm 1 mps 759 mmHg 84%
    07:00 +16°C° 0 mm 1 mps 759 mmHg 77%
    08:00 +19°C° 0 mm 1 mps 759 mmHg 70%
    09:00 +21°C° 0 mm 1 mps 759 mmHg 64%
    10:00 +22°C° 0 mm 1 mps 759 mmHg 58%
    11:00 +24°C° 0 mm 1 mps 759 mmHg 52%
    12:00 +25°C° 0 mm 1 mps 759 mmHg 49%
    13:00 +25°C° 0 mm 1 mps 758 mmHg 47%
    14:00 +26°C° 0 mm 1 mps 758 mmHg 44%
    15:00 +26°C° 0 mm 1 mps 758 mmHg 46%
    16:00 +25°C° 0 mm 1 mps 758 mmHg 49%
    17:00 +25°C° 0 mm 1 mps 757 mmHg 51%
    18:00 +23°C° 0 mm 1 mps 757 mmHg 57%
    19:00 +21°C° 0 mm 1 mps 757 mmHg 63%
    20:00 +18°C° 0 mm 1 mps 757 mmHg 68%
    21:00 +18°C° 0 mm 1 mps 757 mmHg 69%
    22:00 +16°C° 0 mm 1 mps 757 mmHg 70%
    23:00 +15°C° 0 mm 2 mps 757 mmHg 71%

    25 August, Sunday

    Time Temperature Precipitation Wind Pressure Humidity
    00:00 +15°C° 0 mm 1 mps 757 mmHg 73%
    01:00 +14°C° 0 mm 1 mps 757 mmHg 75%
    02:00 +14°C° 0 mm 1 mps 757 mmHg 76%
    03:00 +14°C° 0 mm 1 mps 756 mmHg 77%
    04:00 +13°C° 0 mm 1 mps 756 mmHg 78%
    05:00 +13°C° 0 mm 1 mps 756 mmHg 79%
    06:00 +15°C° 0 mm 1 mps 756 mmHg 74%
    07:00 +18°C° 0 mm 1 mps 756 mmHg 70%
    08:00 +19°C° 0 mm 1 mps 756 mmHg 65%
    09:00 +20°C° 0 mm 2 mps 756 mmHg 60%
    10:00 +23°C° 0 mm 2 mps 756 mmHg 54%
    11:00 +25°C° 0 mm 2 mps 756 mmHg 48%
    12:00 +26°C° 0 mm 2 mps 755 mmHg 45%
    13:00 +27°C° 0 mm 2 mps 755 mmHg 43%
    14:00 +28°C° 0 mm 2 mps 755 mmHg 40%
    15:00 +28°C° 0 mm 2 mps 754 mmHg 44%
    16:00 +27°C° 0 mm 1 mps 754 mmHg 47%
    17:00 +27°C° 0 mm 1 mps 754 mmHg 51%
    18:00 +25°C° 0 mm 1 mps 754 mmHg 56%
    19:00 +23°C° 0 mm 1 mps 754 mmHg 60%
    20:00 +19°C° 0 mm 2 mps 754 mmHg 65%
    21:00 +19°C° 0 mm 2 mps 754 mmHg 67%
    22:00 +19°C° 0 mm 1 mps 754 mmHg 69%
    23:00 +18°C° 0 mm 1 mps 754 mmHg 71%
    Show more